Theta_e
313 313 313 312 311 310 308 305 305 306 305 301 299 301 302 305 309 311 313 314 315 316 318 320 319 319 320 323 325 326 326 325 325 324 322 319 316 314 315 315 314 315 317 317 319 325 332 335 333 323 318 319 318 323 325 324 323 324 327 328 328 328 328 327 327 326 325 324 321 317 318 322 323 320 320 321 321 321 321 321 322 323 323 323 323 323 324 323
313 313 313 312 312 311 309 306 305 304 305 303 299 299 300 302 306 309 311 314 315 315 316 319 319 319 319 321 324 325 325 326 325 325 323 320 318 316 314 314 314 315 316 318 319 323 330 334 334 324 317 319 320 323 326 325 324 325 327 328 328 329 328 327 326 325 324 324 321 317 316 321 322 321 321 322 323 322 322 322 321 322 323 323 323 323 324 324
313 313 313 313 312 311 310 308 306 305 305 304 300 299 300 300 303 307 310 313 314 315 315 317 319 318 318 319 322 325 326 326 325 325 323 320 320 317 315 313 313 315 315 317 319 323 329 333 335 326 317 320 321 323 325 326 325 326 327 327 329 329 328 326 326 325 322 322 322 318 316 318 320 320 321 322 323 323 323 324 323 323 324 323 323 323 323 324
313 313 313 313 313 312 310 309 308 306 306 305 302 301 300 300 301 304 308 311 314 315 315 315 317 318 318 319 322 325 325 325 325 324 322 321 321 319 317 314 312 314 314 316 319 323 328 332 335 326 318 320 322 323 324 326 326 326 326 327 329 327 327 327 325 324 320 322 323 318 316 317 318 318 320 322 322 323 323 324 324 324 324 323 322 322 322 323
312 313 313 313 313 312 311 310 309 308 307 306 304 303 301 300 300 302 305 309 312 314 315 315 316 317 318 319 321 325 324 325 325 323 322 322 322 320 319 315 312 313 313 315 319 325 330 331 331 323 319 321 322 323 324 326 326 326 326 327 328 327 327 328 326 324 320 322 321 318 318 319 318 317 320 322 321 322 324 323 323 323 324 323 322 322 322 322
311 312 313 313 313 313 311 310 310 309 308 306 305 304 302 300 299 300 302 306 310 313 314 314 315 316 318 318 321 325 325 325 323 321 322 322 322 321 320 317 314 312 313 315 320 326 330 328 325 322 321 322 321 322 323 324 325 326 327 326 327 327 327 327 326 326 323 322 321 319 318 318 318 319 319 321 321 322 322 321 321 322 323 323 322 322 322 322
311 311 313 313 313 312 312 311 310 309 309 307 306 305 304 301 300 301 302 305 308 311 314 314 315 316 317 318 321 325 325 324 322 320 321 320 321 321 320 319 315 312 313 315 320 327 330 325 324 323 323 323 321 322 323 324 324 325 326 326 326 326 327 326 324 326 324 321 321 319 319 319 319 319 318 318 320 320 320 320 321 321 321 322 323 323 323 322
311 311 311 312 313 312 312 311 310 309 309 308 307 305 305 302 301 302 303 304 307 310 313 314 315 316 317 318 321 324 324 324 324 322 320 319 319 320 321 320 315 313 312 314 318 325 328 324 323 323 323 325 322 321 322 324 324 324 325 325 325 325 327 327 324 325 324 323 324 323 323 323 321 320 318 319 321 321 320 319 320 321 321 321 322 322 323 323
310 310 311 312 313 312 312 312 311 309 308 308 307 306 305 303 301 302 303 304 305 308 312 314 315 316 317 318 320 323 323 324 324 323 322 320 319 319 321 320 316 313 313 312 315 323 326 323 323 324 324 324 321 322 322 323 325 324 324 325 324 325 325 326 326 325 325 325 325 325 326 326 322 321 321 323 325 324 324 322 320 320 320 320 321 321 321 322
309 310 311 311 312 313 312 311 311 309 308 308 307 307 306 304 301 301 303 304 305 307 310 313 315 316 317 317 320 322 322 324 324 323 322 322 321 320 319 319 317 314 314 314 316 323 326 323 325 326 324 322 321 322 322 323 324 323 324 324 324 325 324 325 325 325 325 324 324 324 326 326 322 321 325 326 325 324 325 324 322 321 321 320 320 320 320 320
308 309 310 311 312 313 312 311 311 310 309 308 307 307 306 305 302 301 303 304 304 306 309 312 314 315 316 317 319 321 321 322 324 324 322 322 322 322 321 319 317 315 315 315 315 321 326 326 326 326 323 322 321 321 322 322 322 323 324 324 324 324 324 324 324 324 324 324 324 323 324 325 320 319 324 326 325 326 326 325 324 323 322 322 321 321 320 320
308 309 310 310 311 312 312 311 311 310 309 308 307 307 306 305 303 301 303 304 304 305 308 311 313 314 316 317 318 319 319 321 323 324 323 323 322 323 322 320 317 315 314 314 314 319 327 328 326 325 323 322 322 321 322 321 321 323 323 323 323 323 323 324 325 323 323 323 323 322 324 325 321 320 323 326 327 328 327 326 325 324 323 322 322 321 320 320
308 308 309 310 310 312 312 311 311 310 310 308 307 307 306 304 303 302 302 304 304 305 306 309 312 313 315 317 317 317 318 320 322 324 324 323 323 323 323 321 318 317 314 313 313 318 327 328 324 323 322 322 322 322 323 321 321 322 321 322 323 324 323 324 325 322 322 323 322 323 326 328 326 324 324 326 326 326 326 325 324 325 325 324 324 323 322 322
307 308 308 310 310 311 312 311 311 311 310 308 307 306 305 303 303 302 302 304 304 305 307 309 311 314 315 316 316 316 316 318 321 324 324 324 324 323 323 322 319 318 316 314 313 317 327 330 323 320 322 322 323 323 323 321 321 322 322 322 324 327 326 324 324 322 323 322 320 323 326 328 328 326 325 325 326 324 324 324 324 325 326 326 326 326 325 325
307 307 308 309 310 310 311 311 311 310 309 308 307 306 304 303 303 303 302 304 305 306 307 309 311 314 315 315 315 316 316 317 319 322 324 324 324 324 323 322 320 318 317 316 314 317 327 328 320 319 322 322 323 324 324 322 321 322 324 325 325 327 327 324 323 322 324 321 318 324 327 327 327 327 327 326 326 324 323 324 325 324 325 326 327 327 327 327
306 307 307 308 309 309 310 312 311 310 309 308 307 306 304 303 303 303 302 304 306 307 307 309 312 313 315 316 315 315 315 316 317 319 322 323 324 324 323 323 321 320 319 318 317 321 327 325 319 320 322 322 323 323 325 325 324 323 325 327 327 327 327 326 323 321 325 323 318 322 327 328 327 326 325 325 325 323 323 324 325 324 324 325 327 327 327 327
306 307 307 308 309 309 309 311 311 310 310 309 307 305 304 303 303 302 303 304 306 308 309 310 312 313 315 316 315 315 315 315 316 316 320 323 324 324 323 323 323 321 321 320 320 324 327 323 319 320 322 323 323 323 325 326 326 325 325 326 327 326 326 327 324 322 323 323 321 321 324 327 327 326 326 325 324 322 322 324 324 324 323 323 324 325 326 326
305 306 307 307 309 309 308 310 311 310 310 309 306 305 305 304 303 302 303 305 307 309 310 311 312 314 315 315 315 316 315 314 314 315 318 322 323 324 323 323 323 321 321 321 322 324 324 322 320 321 322 323 323 324 325 325 324 325 326 327 327 325 325 326 326 324 322 322 323 323 323 324 325 325 326 325 324 323 322 323 324 324 323 323 323 324 325 326
305 306 307 307 308 309 308 310 311 310 309 308 306 306 305 305 305 304 305 307 309 310 311 312 313 314 314 313 315 316 316 314 314 316 318 321 322 324 324 323 323 321 321 322 322 323 323 322 322 323 323 322 323 323 323 323 322 322 325 326 326 326 325 325 325 324 323 323 324 324 324 324 324 324 325 325 323 323 323 323 324 323 323 323 324 325 326 326
305 305 306 307 308 309 308 309 311 310 309 308 306 306 306 307 307 307 307 307 308 310 311 312 312 314 314 314 315 315 316 316 316 317 319 319 321 323 324 323 323 322 322 322 322 321 322 323 324 324 323 322 322 323 322 322 322 321 323 324 325 326 325 325 325 323 323 324 325 325 325 325 325 324 325 325 324 323 323 323 323 323 324 324 324 325 326 326
305 305 306 307 308 310 309 309 311 310 309 308 305 306 307 307 307 307 307 308 308 308 311 312 312 314 314 314 316 315 316 317 317 318 319 319 321 323 323 322 323 324 323 322 322 321 321 323 324 323 323 322 321 322 322 323 322 321 321 322 323 324 323 323 324 323 323 324 324 324 324 324 324 323 324 325 324 324 324 324 323 323 324 324 324 325 326 326
305 305 306 307 308 309 308 309 311 310 309 307 305 305 306 305 306 306 306 308 308 307 309 312 312 314 314 314 315 315 317 317 317 318 319 319 321 322 322 322 323 324 324 323 322 322 322 322 321 322 323 321 321 322 322 323 323 323 322 322 322 322 323 322 323 323 322 323 323 323 323 323 322 322 323 324 324 324 325 325 325 325 325 325 325 325 326 326
305 305 306 306 308 309 308 309 311 310 308 307 305 305 304 303 305 306 305 307 308 307 308 310 312 313 314 314 314 316 318 318 318 318 319 320 321 321 321 322 324 324 324 323 322 322 322 320 319 322 322 321 321 322 322 323 323 324 324 324 323 323 324 322 322 323 322 322 323 323 324 323 323 323 323 325 325 325 325 326 326 326 326 326 326 326 326 326
304 305 305 306 308 309 309 309 311 310 308 306 305 304 304 304 305 306 305 307 308 308 308 309 311 312 313 314 314 315 317 317 318 319 319 319 321 321 321 322 323 324 324 323 322 322 321 320 319 321 321 320 321 321 322 323 323 324 325 325 324 324 324 321 322 323 323 323 323 324 326 326 325 326 325 326 326 326 326 326 326 326 326 326 326 326 326 326
304 304 304 306 308 309 308 309 311 310 307 306 305 304 304 304 305 306 306 307 307 308 308 308 309 311 312 313 313 314 315 316 317 319 318 318 320 321 321 321 322 324 324 323 323 322 321 320 320 321 321 321 321 321 322 323 323 323 324 324 324 325 324 323 325 325 325 326 324 325 328 327 324 326 327 326 326 326 327 327 327 327 326 326 326 326 326 327
304 305 305 305 308 308 308 310 311 308 307 306 305 304 304 304 305 307 307 306 306 307 309 309 308 309 311 313 313 314 314 315 316 318 318 318 319 321 321 320 321 322 323 323 324 324 322 320 320 320 321 321 321 321 321 321 322 322 323 323 323 324 325 326 327 326 326 327 325 325 328 327 324 325 326 326 326 326 327 327 327 328 327 327 326 326 327 327
304 305 305 305 307 308 309 311 310 307 307 306 305 304 305 305 305 307 308 305 305 308 309 309 308 309 311 312 313 313 314 315 315 316 318 319 319 320 321 321 320 321 322 323 324 325 323 321 321 320 321 321 321 321 320 320 321 322 322 323 323 324 325 326 327 327 326 326 326 325 328 329 327 324 324 325 326 326 327 327 327 328 327 327 327 327 327 327
305 304 305 306 307 307 309 310 309 307 307 306 305 305 306 305 304 306 306 304 306 308 309 309 309 310 311 312 313 313 313 315 315 316 317 319 319 320 320 320 320 320 321 323 326 325 322 322 322 321 321 321 320 319 320 320 321 322 322 322 322 323 324 325 328 328 327 327 326 325 327 329 327 324 324 325 325 326 326 325 326 327 328 327 327 327 327 326
304 304 305 305 306 307 308 309 308 306 306 305 305 305 306 305 304 305 303 303 306 306 308 310 309 310 312 313 313 313 313 313 315 316 317 317 318 318 319 320 320 321 321 322 325 324 321 321 322 321 322 322 320 319 320 321 321 322 322 321 321 322 323 325 327 327 327 326 325 323 324 327 326 322 323 325 325 325 325 325 325 327 327 327 327 326 326 326
304 304 305 305 307 309 309 308 307 306 306 305 305 305 305 304 305 305 303 304 307 307 308 310 309 311 313 313 313 313 313 313 314 316 317 317 317 316 317 319 320 321 321 321 323 322 320 319 320 321 322 321 320 320 321 321 321 322 323 323 323 323 323 325 326 325 326 326 324 322 322 325 325 323 322 324 324 324 324 324 325 326 327 327 327 326 325 325
304 304 305 305 307 310 309 307 306 306 305 304 305 306 305 305 304 304 303 307 309 309 310 310 309 312 313 313 314 313 313 314 314 316 317 317 316 315 317 318 319 320 320 319 320 321 320 320 320 320 320 320 319 320 321 321 321 322 324 325 325 325 325 326 327 326 325 325 323 321 322 324 325 324 322 323 323 322 324 324 324 325 326 326 326 325 325 325
304 304 305 306 308 309 308 307 306 306 305 304 305 306 305 305 304 303 305 307 308 308 310 310 310 312 312 312 313 313 313 313 314 316 317 317 317 317 318 318 319 321 321 320 320 320 321 321 320 319 319 319 319 320 322 322 321 322 324 325 323 324 327 327 328 328 326 323 321 321 322 324 324 323 321 322 322 322 323 324 324 325 326 326 325 325 324 324
304 304 304 306 308 309 307 306 305 305 304 304 305 305 305 305 304 304 305 305 305 307 310 310 310 311 311 312 312 312 312 313 314 315 316 316 316 317 317 318 319 320 320 320 321 321 321 321 321 320 319 319 319 321 322 322 322 322 324 324 321 322 325 325 325 327 326 323 321 320 320 322 322 320 320 321 321 323 323 324 324 324 325 324 323 324 323 323
304 304 305 306 308 308 307 305 305 304 305 305 305 305 305 305 305 305 305 305 305 308 310 310 310 311 311 311 311 312 312 313 314 315 315 315 316 316 316 317 318 318 318 319 319 320 322 323 322 321 321 319 318 320 321 321 322 322 322 322 320 320 323 322 322 324 324 323 321 320 320 320 319 318 320 319 320 322 322 323 323 322 323 323 323 323 323 323
304 305 306 307 308 307 306 305 305 304 305 305 305 305 304 304 304 304 305 306 307 309 310 310 311 311 311 311 311 312 312 313 314 314 314 315 315 315 315 316 317 317 318 318 319 319 321 323 322 321 321 319 318 319 319 320 322 322 321 323 322 319 319 320 320 321 321 322 322 321 321 320 318 318 319 319 319 319 320 321 321 322 322 322 323 322 322 322
304 305 306 308 307 306 305 305 305 304 305 305 305 305 304 304 304 305 305 307 308 309 311 311 311 312 312 311 312 312 312 313 313 314 314 314 314 314 314 315 316 316 317 318 319 319 320 322 322 320 320 319 318 319 319 320 322 322 322 324 323 319 318 318 318 318 319 321 321 321 322 320 319 319 319 318 319 318 319 319 320 321 322 322 322 322 322 321
304 305 307 307 306 306 305 304 304 304 304 305 305 305 304 304 305 305 305 308 309 310 312 312 312 312 312 312 311 312 312 312 312 314 314 313 313 314 314 314 316 316 316 316 317 317 319 322 321 320 320 320 318 319 319 319 320 322 323 322 320 321 321 318 318 319 319 320 320 320 321 320 319 320 318 317 318 318 318 319 319 320 320 320 321 320 320 319
304 305 307 306 305 305 304 304 304 304 304 304 304 305 304 303 305 306 306 308 310 311 312 312 312 312 312 312 311 312 312 312 313 313 313 313 313 314 313 314 315 316 316 316 316 316 317 320 322 320 320 320 319 321 322 321 320 321 322 321 320 322 323 319 318 319 319 320 319 317 318 318 319 319 317 317 318 317 318 318 318 319 320 320 320 319 319 318
304 305 306 306 305 305 304 304 305 304 304 304 304 305 304 303 305 307 307 307 310 311 311 312 312 312 312 311 311 312 312 312 313 313 313 313 313 314 314 313 314 316 316 316 316 315 315 318 320 320 320 321 321 322 323 323 321 320 321 322 322 322 323 322 319 318 319 320 319 318 317 317 318 318 316 317 317 317 317 318 318 318 319 320 320 318 317 317
305 305 305 305 305 304 304 304 304 304 304 304 304 304 304 304 304 306 306 308 309 309 309 311 311 311 312 311 311 312 312 312 313 313 313 313 313 314 314 313 314 315 316 316 316 315 314 315 318 320 319 321 322 322 322 323 323 322 323 324 322 321 323 323 321 318 319 319 319 319 319 317 316 317 317 316 316 317 317 318 319 319 319 319 319 319 319 319
305 304 304 305 304 304 304 304 304 304 304 304 304 304 304 304 304 305 307 307 308 307 307 310 311 311 312 312 312 313 312 312 313 313 313 313 313 313 314 313 314 314 315 316 315 315 315 315 316 318 319 320 321 319 317 317 319 320 322 323 323 322 321 323 323 322 320 319 319 319 319 319 316 316 316 316 316 316 316 318 319 319 318 318 318 318 318 319
304 303 304 304 304 303 303 303 303 304 304 304 304 304 305 304 304 306 306 307 307 306 306 309 310 311 311 311 312 312 312 312 312 313 313 312 313 313 313 313 314 314 314 315 315 314 314 314 315 316 318 319 318 313 310 311 313 316 319 321 322 321 321 322 323 322 321 320 319 318 319 319 315 313 313 314 315 314 314 315 316 316 315 315 315 315 316 316
302 302 303 304 303 303 303 304 304 304 303 304 304 304 304 305 305 306 307 307 307 306 306 309 309 309 310 311 310 311 312 312 312 313 312 312 313 312 312 312 313 314 313 314 314 313 313 314 315 315 316 317 315 312 310 310 312 315 317 319 322 322 321 321 321 322 321 321 321 320 321 321 316 311 310 311 312 312 312 312 314 314 313 313 314 314 315 315
301 302 303 303 303 303 304 304 305 304 304 304 305 304 303 304 305 306 306 307 307 306 306 308 308 309 310 310 310 310 311 312 312 312 312 313 312 310 310 312 313 313 313 313 314 313 313 314 315 315 316 316 316 315 314 312 312 313 315 317 320 321 321 322 322 321 321 322 322 321 322 321 316 312 311 312 312 313 313 312 313 314 314 314 314 314 314 315
301 301 301 302 302 302 303 304 304 304 304 304 305 304 304 304 304 305 306 306 306 306 307 307 307 308 309 309 310 310 310 310 311 311 311 312 311 307 309 312 313 312 313 313 313 313 313 315 314 314 315 315 315 317 317 316 314 312 313 315 317 319 321 322 322 320 321 323 323 321 322 321 316 314 314 314 314 314 315 314 314 314 314 315 315 315 315 315
302 301 301 301 301 302 302 303 304 304 304 304 305 305 305 304 303 304 306 305 304 305 307 306 306 307 308 309 310 310 310 310 310 311 311 311 310 307 307 311 313 313 312 312 313 312 311 313 314 314 314 314 315 318 318 317 317 315 314 314 316 317 318 320 322 322 322 323 322 321 322 321 318 316 316 316 315 315 315 315 315 315 314 315 315 316 316 315
302 302 302 302 302 302 302 303 303 304 304 304 305 304 305 305 303 303 305 305 303 305 306 306 306 308 307 308 309 309 310 310 310 311 311 311 309 306 306 308 311 312 311 311 313 312 310 312 314 314 314 314 314 317 317 317 318 317 315 315 315 316 316 317 319 320 321 322 324 322 322 322 320 318 316 316 315 314 314 315 315 315 314 314 315 315 316 316
302 302 302 302 303 303 303 303 303 304 305 305 304 304 305 305 304 304 304 302 302 304 306 306 306 307 307 308 308 309 309 310 309 310 311 310 309 308 307 307 308 310 310 310 312 311 310 311 313 314 314 314 314 314 315 317 317 317 316 315 315 315 315 316 316 316 317 319 320 319 318 320 320 316 314 314 313 313 313 313 314 313 313 314 314 315 315 315
301 302 301 302 303 303 303 304 304 304 305 304 304 304 305 305 305 305 304 302 302 304 306 306 306 307 307 308 308 308 309 309 309 309 310 309 309 309 309 308 308 309 309 310 310 310 310 312 313 312 313 313 313 314 315 315 315 316 316 315 315 315 314 315 315 314 315 315 315 314 314 315 315 313 312 312 312 313 313 313 313 313 313 314 314 314 314 313
301 302 301 302 302 303 303 303 304 304 304 304 304 304 304 305 305 304 303 303 305 305 305 306 307 306 307 308 308 308 308 309 309 309 309 309 309 309 309 310 309 308 309 310 310 309 310 312 312 312 312 312 313 313 313 313 314 315 315 314 314 314 313 314 314 313 313 313 313 313 313 313 313 312 312 312 313 313 313 313 313 313 313 314 313 313 311 312
301 301 302 302 302 303 303 303 304 304 304 304 304 304 304 304 304 304 303 303 305 305 304 306 307 307 306 307 308 308 308 309 310 310 309 309 309 309 309 310 310 309 309 310 310 309 310 311 311 311 312 313 313 313 312 312 312 313 313 312 313 313 313 313 313 313 313 314 315 314 313 314 315 313 312 313 313 313 313 313 313 313 313 313 312 311 310 310
301 301 302 303 302 303 303 303 304 304 304 304 304 304 304 304 304 304 304 302 302 303 304 305 307 306 306 306 307 308 309 309 309 308 308 308 309 309 309 309 309 309 309 309 310 309 309 310 310 311 313 313 312 312 311 310 311 312 312 312 312 312 313 313 313 313 313 314 315 314 313 315 316 313 312 312 313 313 313 313 313 313 313 312 311 310 310 309
Wind_Speed
32 29 28 27 25 25 26 26 27 25 23 25 28 28 26 25 24 24 23 23 23 24 23 22 22 23 22 20 19 18 17 19 21 22 25 24 20 24 24 17 17 17 17 17 15 14 13 13 14 12 9 6 4 5 5 4 5 5 4 4 4 4 3 3 5 3 1 2 4 5 8 8 4 7 8 5 7 7 7 10 12 12 14 12 8 6 6 10
34 32 30 28 27 26 26 26 25 25 24 23 25 28 26 26 25 24 24 23 22 24 24 22 21 22 22 21 19 18 18 19 21 25 27 23 20 22 23 20 18 17 18 18 17 15 14 14 15 12 10 7 5 5 6 5 6 4 2 4 5 4 2 1 2 3 0 2 4 3 8 9 4 4 8 6 5 7 7 9 12 13 14 16 13 10 7 9
35 34 32 30 28 27 26 26 25 24 24 22 22 25 26 26 26 25 25 24 23 23 24 23 22 22 21 21 19 17 17 17 21 29 28 23 23 21 22 23 20 18 19 19 18 17 14 14 15 13 10 8 6 6 6 6 6 3 3 6 5 3 2 2 3 4 2 2 3 2 6 8 5 3 6 7 4 5 9 10 10 14 15 17 17 14 11 9
36 35 34 31 29 28 27 26 25 24 23 22 21 23 25 26 26 26 25 24 23 22 23 23 22 22 21 20 18 16 16 14 20 31 26 23 26 22 21 24 23 20 19 19 19 17 15 15 15 13 11 8 6 7 7 7 6 3 4 6 1 2 3 3 4 5 4 1 1 2 4 6 6 7 7 6 5 7 12 13 13 14 14 15 16 16 16 13
37 37 36 33 31 29 28 27 26 25 23 22 22 22 24 25 25 26 26 25 24 23 22 22 23 22 20 19 17 16 14 7 12 21 21 23 26 24 22 23 24 23 20 20 20 19 16 15 15 14 12 7 6 7 7 8 7 4 4 3 2 3 4 1 2 5 6 2 1 3 3 3 4 8 9 8 8 6 6 9 13 14 13 14 15 15 18 18
38 38 37 35 32 30 29 28 26 25 23 22 22 23 23 24 24 24 25 26 25 23 22 22 22 22 21 20 17 17 17 7 2 3 10 19 23 23 24 23 24 24 22 21 22 21 18 18 16 14 12 8 9 9 6 9 9 6 4 3 2 5 3 1 1 4 5 3 2 3 2 2 4 6 8 12 15 9 6 7 8 9 12 15 16 15 16 18
37 39 38 36 34 31 30 28 27 26 24 23 22 22 22 22 23 23 24 25 25 24 23 22 22 22 22 21 19 21 26 18 3 4 3 7 18 23 23 23 25 25 24 23 24 24 20 21 18 14 12 8 10 11 7 10 10 8 5 5 6 6 5 1 1 3 4 3 2 1 2 3 4 4 4 11 18 16 15 14 10 9 10 12 15 16 16 16
35 38 38 37 35 33 32 29 28 27 25 24 22 21 21 21 21 22 22 24 25 24 23 22 21 22 22 22 22 22 28 27 16 9 3 2 9 21 24 24 26 27 27 26 26 27 24 23 21 16 12 8 9 11 9 9 8 10 9 5 6 7 7 6 3 3 4 3 3 2 5 4 4 6 6 12 18 17 17 17 16 14 12 11 12 13 15 16
34 36 39 38 36 35 33 31 29 28 27 25 23 22 21 21 21 22 22 22 24 24 23 23 21 22 22 23 22 19 25 28 23 22 14 2 4 12 24 27 28 29 29 28 27 28 25 22 23 19 12 9 11 11 12 10 7 11 12 5 6 7 7 9 8 6 5 5 5 6 9 7 4 6 8 14 17 16 16 17 18 17 15 13 12 11 13 15
35 35 38 39 37 36 35 32 30 29 27 26 24 22 20 21 21 21 21 21 23 23 23 23 21 22 23 24 21 16 23 27 24 26 20 12 5 4 13 22 27 31 30 30 29 30 27 22 25 24 12 9 11 9 12 11 4 8 11 6 7 7 6 7 7 6 7 6 5 8 10 7 3 4 7 8 8 10 11 13 17 18 18 17 16 16 15 14
36 36 37 39 39 38 36 34 32 30 28 26 25 23 21 20 21 21 21 21 22 23 23 23 22 23 24 24 22 17 20 24 22 27 25 20 17 8 6 14 23 31 31 31 31 30 29 24 25 24 10 7 11 7 10 11 6 5 6 5 7 6 6 8 7 7 7 5 5 6 9 8 3 4 10 11 12 14 13 13 14 16 19 20 20 20 19 17
37 37 37 39 40 39 37 35 34 31 28 27 25 24 21 20 20 20 21 20 21 22 23 23 22 23 24 25 30 26 23 23 17 22 29 24 21 17 12 12 19 29 31 32 33 30 28 24 25 23 9 7 11 5 8 13 8 5 5 6 7 6 8 11 9 8 8 6 4 2 8 11 8 10 18 19 19 21 19 17 16 15 16 18 20 20 21 20
37 37 37 38 40 41 38 36 35 32 29 28 26 24 21 19 20 20 20 20 20 21 22 23 22 23 23 23 31 31 28 27 15 14 27 26 21 20 17 13 16 26 30 32 33 30 29 23 22 21 9 8 9 4 6 10 7 6 6 6 7 6 9 13 11 7 8 7 5 4 8 12 9 14 22 21 19 20 19 18 18 18 17 16 18 20 21 21
38 38 36 37 40 41 39 37 36 33 30 28 26 24 21 19 19 19 20 19 19 20 21 23 23 22 23 25 27 26 29 32 21 12 19 26 22 19 19 15 13 22 28 29 30 28 28 23 19 18 11 8 8 6 5 6 5 6 5 3 7 9 6 10 11 10 9 7 9 7 9 11 8 10 13 14 16 18 17 17 17 19 21 21 21 22 23 23
39 38 37 36 37 40 40 39 36 34 32 29 26 24 22 19 19 19 19 19 18 19 21 22 23 19 17 23 24 24 26 30 29 20 15 21 22 18 20 17 13 19 24 26 26 25 26 22 16 15 10 8 10 9 5 3 5 6 5 6 8 9 5 6 9 13 12 7 12 11 8 9 11 11 9 10 15 16 18 18 17 19 22 24 25 26 27 27
39 38 38 36 36 39 41 40 37 35 32 29 27 25 22 20 19 19 18 18 18 19 20 20 23 20 11 13 19 24 26 26 31 30 21 19 18 17 20 17 14 18 21 22 23 22 25 21 13 11 9 9 10 8 6 5 6 7 8 9 8 9 8 5 6 12 14 7 10 14 9 6 6 7 6 8 14 16 18 21 19 19 21 24 27 28 29 29
39 38 39 37 37 40 42 41 39 37 33 30 28 25 22 21 20 20 18 18 19 18 19 20 21 18 12 11 14 20 27 28 30 32 28 22 17 16 18 18 16 17 17 19 20 19 21 17 10 9 8 8 10 8 8 10 10 9 8 9 7 7 8 6 3 7 12 7 9 14 13 12 9 7 7 7 11 13 16 20 20 20 19 22 27 30 31 31
40 38 38 38 37 40 42 42 40 37 35 31 28 25 23 21 20 20 20 20 19 15 15 18 16 11 13 21 20 16 23 28 29 30 29 25 18 16 20 20 18 19 17 14 16 16 16 12 8 8 8 9 11 11 12 11 10 11 11 10 8 6 7 8 3 6 11 8 9 13 13 16 14 14 17 14 11 12 16 19 20 19 19 20 24 29 31 32
41 39 38 38 38 40 41 42 42 39 37 33 29 27 23 21 20 19 21 21 19 13 8 17 24 9 2 15 25 20 17 22 27 28 29 28 22 18 21 21 22 24 19 11 13 17 15 9 7 9 11 14 16 17 15 8 8 14 13 10 10 8 8 9 6 5 9 9 10 13 14 14 14 15 19 18 15 16 18 20 20 19 20 22 25 30 32 33
41 40 39 39 38 39 41 43 43 41 39 35 33 29 24 21 15 12 21 25 28 23 6 14 34 17 9 3 20 23 15 16 23 25 27 30 26 21 21 22 24 23 16 10 11 18 16 10 9 11 14 18 19 20 18 9 7 12 11 10 11 9 8 10 8 4 4 8 11 13 15 16 16 15 18 22 20 19 21 20 21 22 24 27 30 35 37 38
41 41 40 40 39 40 41 43 43 42 41 38 38 33 27 28 15 11 24 24 30 34 14 8 25 22 2 7 12 21 17 16 21 23 24 28 27 21 20 22 17 12 14 13 10 12 14 12 14 15 14 17 18 19 20 15 11 11 11 10 10 10 9 9 8 5 4 7 11 13 15 17 17 16 19 23 21 22 24 22 22 24 26 28 31 38 42 42
42 41 41 41 39 40 42 44 44 44 42 38 40 36 34 40 24 17 26 14 17 35 26 14 17 20 14 2 5 18 20 15 19 24 23 27 28 20 16 18 11 7 13 15 10 8 11 13 19 19 16 17 17 18 19 18 15 11 10 8 8 9 7 7 8 7 6 5 10 13 15 16 17 18 21 23 23 26 28 26 26 26 27 29 30 36 42 43
42 41 42 40 39 40 41 44 45 44 44 41 43 41 38 43 27 14 22 10 6 25 29 25 20 17 18 11 7 15 16 14 16 23 26 27 28 24 18 13 11 11 12 13 11 10 11 14 18 18 18 20 19 20 19 16 14 12 10 9 9 8 7 6 7 9 8 7 7 10 12 13 15 17 19 23 27 29 29 26 28 29 29 31 31 33 38 40
43 41 42 39 39 41 40 44 45 45 47 44 45 43 37 40 26 12 16 7 1 14 25 29 24 17 15 14 13 13 13 15 16 22 28 28 26 24 17 13 14 12 11 15 15 12 11 11 15 18 19 21 20 21 19 15 13 14 14 12 10 10 10 9 5 6 6 8 7 8 11 12 13 16 16 18 23 28 28 26 28 30 32 36 35 35 38 39
44 42 42 41 40 42 43 45 48 48 48 45 44 42 36 37 27 14 13 5 1 6 13 21 22 21 20 16 14 13 10 13 16 21 29 32 28 18 11 13 14 11 13 18 16 12 11 10 19 21 18 19 20 19 19 16 12 14 17 17 14 11 11 10 6 5 4 8 8 7 10 8 8 15 16 13 15 21 24 24 27 28 29 32 33 36 42 45
45 42 43 43 41 43 45 44 48 50 46 44 44 41 35 34 28 16 11 2 4 5 6 14 17 19 24 19 16 14 6 10 17 20 25 33 33 20 10 9 7 9 13 14 8 6 8 12 18 19 17 21 21 17 18 19 14 13 14 16 17 14 13 11 8 6 7 7 4 8 10 9 6 12 14 12 13 16 18 18 23 25 25 27 29 35 42 44
45 44 44 44 43 47 47 42 46 50 46 44 45 41 33 33 29 16 7 1 5 7 9 12 14 14 20 20 21 16 3 8 17 17 21 28 31 22 12 9 5 6 9 7 6 4 9 15 15 16 18 19 19 16 18 20 15 9 7 13 18 18 15 12 9 8 7 6 3 8 9 11 12 12 12 14 16 17 17 16 17 20 23 26 28 34 39 40
45 44 44 46 46 50 50 45 48 52 50 47 47 41 31 32 30 14 5 3 4 7 7 10 13 13 16 20 27 19 2 7 12 12 21 27 27 19 11 12 9 8 10 9 8 6 10 17 17 19 19 14 15 16 17 20 15 5 7 10 14 16 16 12 9 7 4 5 9 10 9 9 13 9 8 13 18 19 18 18 17 18 22 25 28 34 38 39
45 44 44 46 47 50 49 49 54 53 49 47 45 39 31 32 27 10 3 5 3 3 4 12 14 12 18 20 26 23 8 6 6 8 19 24 23 15 6 13 12 7 11 11 9 4 3 10 16 18 14 11 13 12 16 20 14 6 8 8 10 12 14 11 8 7 5 6 13 14 11 10 12 7 8 12 15 16 15 15 16 18 22 25 30 38 41 41
45 44 45 46 49 51 46 45 51 48 46 47 43 39 35 30 20 8 7 5 2 3 7 14 13 14 22 17 16 23 16 6 3 8 15 15 18 13 4 11 11 4 7 9 11 7 2 1 8 11 10 8 8 8 15 18 11 9 7 7 8 7 7 7 6 7 7 10 17 19 15 13 11 5 7 9 7 7 8 9 11 15 20 24 29 37 40 40
44 44 45 46 51 55 48 43 47 46 45 45 42 42 35 20 9 7 9 3 2 4 8 10 11 15 22 16 11 18 17 7 5 9 11 9 11 10 4 7 7 3 4 4 7 10 8 3 5 8 10 9 8 7 10 12 11 10 5 6 7 4 3 4 5 7 9 11 14 17 17 17 14 5 2 2 0 2 6 8 9 13 18 22 25 31 34 34
43 43 43 47 52 56 54 50 50 49 45 45 46 43 26 8 5 8 6 3 0 4 7 10 12 14 19 17 12 16 16 10 9 10 10 8 8 8 8 8 7 6 7 6 6 7 9 8 5 6 13 16 12 7 5 6 9 8 5 8 8 5 5 7 8 8 11 10 3 3 11 15 17 11 6 4 1 2 4 7 8 11 14 17 21 24 26 26
42 40 40 48 53 52 54 54 53 50 46 48 46 31 12 4 8 9 7 5 2 3 7 11 14 16 19 18 13 15 16 10 9 11 10 10 8 8 10 10 7 4 4 6 8 6 5 7 8 5 9 18 16 10 7 7 10 11 9 11 11 8 9 11 10 8 9 10 3 4 3 8 13 11 12 17 14 10 10 10 10 12 12 14 15 16 16 17
41 38 39 48 52 50 52 53 53 50 51 53 38 17 7 6 8 11 8 4 1 2 7 11 14 17 17 15 13 14 12 9 11 12 9 8 7 8 10 10 11 6 1 4 7 7 6 6 9 9 8 16 17 14 13 9 10 13 11 11 11 8 9 9 8 9 8 8 4 5 2 6 7 2 3 8 10 11 13 13 13 12 12 14 15 17 19 21
39 37 41 47 48 49 52 52 52 52 55 49 24 8 9 8 8 12 9 4 2 4 8 12 15 15 13 12 13 13 9 7 12 12 8 8 7 9 9 10 14 10 5 6 4 6 9 6 8 14 14 18 18 16 16 12 7 10 8 9 11 9 7 4 2 6 6 5 5 6 4 6 5 3 2 2 2 2 7 8 11 14 18 21 22 24 28 29
37 38 42 45 47 50 53 53 52 54 54 36 12 8 10 7 7 9 7 6 5 8 12 13 13 11 11 9 10 12 7 5 12 11 7 9 9 10 8 7 13 13 10 8 2 3 8 5 8 14 13 18 22 19 18 15 8 6 8 11 10 9 6 2 2 2 4 7 6 7 8 8 8 11 11 12 8 5 6 7 11 16 22 23 24 28 32 32
36 39 41 41 47 52 54 54 53 55 47 23 9 11 8 4 5 6 8 7 6 11 12 9 8 8 10 8 8 13 9 5 11 10 6 8 9 10 10 8 13 17 15 12 4 1 4 3 5 13 13 17 26 22 18 20 16 6 9 12 4 1 2 2 3 1 4 7 5 8 14 12 10 8 4 11 17 14 12 9 7 10 15 19 24 30 32 31
38 40 39 41 50 53 54 54 55 53 35 13 9 10 5 5 5 5 9 9 7 10 9 5 7 8 10 10 10 14 12 8 11 10 8 7 6 11 14 8 12 20 20 17 8 0 2 4 2 11 13 13 19 16 11 19 18 4 5 11 6 1 5 5 5 3 5 6 6 11 17 12 11 9 1 5 11 14 15 12 7 7 11 15 23 29 29 30
41 34 29 42 54 54 54 56 55 45 23 9 10 7 5 7 4 4 12 12 7 8 9 5 5 7 10 11 11 14 14 13 12 10 9 7 5 12 17 10 10 17 21 19 9 0 2 4 4 7 9 6 8 9 7 12 11 1 2 8 4 2 6 7 7 6 6 6 7 10 13 10 10 11 7 5 6 7 11 11 9 12 17 22 29 32 32 33
39 19 16 45 55 52 57 55 44 28 11 8 9 4 6 8 3 6 14 13 5 4 8 6 5 8 11 12 11 11 12 13 12 9 8 8 7 9 14 12 8 12 20 19 11 4 2 4 5 3 4 4 4 6 9 12 10 6 6 9 8 5 2 3 5 6 6 6 6 8 10 8 5 6 9 10 9 10 12 11 10 16 23 28 31 33 32 31
33 6 13 50 56 52 57 41 21 12 5 6 6 2 6 8 5 8 11 9 4 1 3 6 7 8 8 10 10 9 10 11 11 8 5 8 10 7 11 17 11 11 16 15 11 9 6 5 8 5 3 4 3 1 4 5 5 7 8 10 12 10 6 4 6 6 5 6 6 7 10 8 2 1 5 8 8 7 9 10 9 10 12 11 12 17 21 24
24 2 18 53 57 55 48 19 5 8 5 5 6 4 7 8 8 9 7 5 4 2 2 4 6 7 6 6 6 7 9 9 9 9 6 10 13 8 10 18 16 16 14 9 9 8 3 3 8 9 5 3 2 2 3 2 1 3 6 7 9 9 8 8 8 8 7 7 7 7 9 6 1 3 3 2 2 4 4 2 1 4 7 9 8 9 11 15
15 11 30 54 58 56 37 9 5 9 3 5 8 6 6 6 6 9 7 6 3 2 3 2 3 5 5 4 5 7 9 9 9 10 7 10 11 6 9 16 17 17 12 7 7 7 3 2 6 8 6 3 2 1 2 3 3 3 6 6 7 9 10 8 6 5 6 8 7 6 9 6 1 3 4 7 8 10 12 10 8 8 10 12 11 10 11 11
19 25 36 48 55 50 26 6 9 12 6 8 9 5 4 3 5 9 9 7 4 3 4 2 1 2 2 3 6 8 9 7 8 8 6 6 5 2 11 20 19 14 11 9 11 11 6 5 7 9 8 6 6 6 4 2 1 2 4 6 8 10 13 11 4 1 3 10 12 9 9 8 2 4 6 7 7 8 9 10 9 8 10 14 15 15 16 15
20 20 24 37 47 39 14 0 7 11 10 12 11 9 8 4 2 9 11 7 3 4 4 2 2 3 3 3 5 7 9 6 5 7 5 5 3 2 10 22 21 14 12 14 16 14 8 5 8 12 12 10 9 8 7 5 4 3 3 5 9 12 14 12 8 5 5 10 13 11 8 6 4 7 6 5 6 5 4 5 7 8 11 15 17 19 20 20
12 7 9 18 27 23 6 2 7 9 9 12 10 9 12 7 2 6 11 7 2 4 3 2 3 4 3 6 7 7 10 6 2 5 8 7 3 1 5 15 18 14 13 16 20 13 5 5 10 12 12 13 10 4 1 2 5 5 7 9 10 12 10 8 8 9 6 7 10 12 10 8 6 7 6 3 4 5 4 4 6 9 15 19 20 21 22 23
8 5 6 7 8 9 3 1 8 8 8 12 8 6 11 10 5 5 5 4 4 7 3 3 4 6 6 9 8 7 11 8 3 6 10 8 3 2 2 6 11 15 14 16 19 12 2 7 12 13 15 16 13 6 2 2 5 7 9 9 10 10 8 7 6 4 3 7 10 7 7 12 12 7 4 2 5 7 8 9 9 11 16 20 21 22 24 24
4 6 8 8 5 7 5 7 12 10 11 13 6 6 12 11 9 8 3 2 5 8 5 1 5 9 10 13 9 5 9 8 6 7 7 5 4 3 2 2 7 12 13 11 14 9 1 7 11 12 15 17 15 9 5 4 4 6 9 11 11 11 10 10 6 1 1 6 5 2 1 11 13 4 2 6 8 9 12 14 15 16 18 20 21 22 25 26
6 7 7 6 4 6 8 11 15 13 12 13 6 6 13 13 13 9 4 4 5 6 8 8 10 11 11 13 10 7 9 8 7 9 7 6 6 4 4 3 6 10 11 9 9 7 5 7 9 9 13 16 15 10 6 7 6 5 9 12 12 14 14 13 10 6 5 6 4 3 7 12 12 7 8 12 13 13 14 14 15 15 14 16 18 20 22 24
9 8 8 6 4 8 13 12 12 11 9 10 7 6 11 14 15 10 5 6 9 8 9 10 11 11 11 12 12 11 12 12 11 11 10 7 5 5 6 5 4 7 9 8 6 7 8 7 5 6 9 13 13 9 7 8 7 7 8 8 9 11 11 12 11 9 7 6 7 6 8 12 13 10 11 17 15 9 9 12 13 13 12 13 16 17 16 17
12 12 14 11 5 7 12 8 7 9 8 9 8 7 10 13 15 11 5 6 9 9 10 11 10 9 9 12 15 15 15 17 15 14 19 17 12 13 12 7 8 9 7 8 6 5 7 5 3 6 9 11 10 11 10 6 4 8 8 6 8 8 8 10 10 8 8 8 9 8 6 10 13 11 12 17 11 7 9 13 12 14 16 15 14 14 13 13
16 16 18 13 5 4 9 6 5 8 7 8 8 7 9 10 12 11 7 6 6 5 8 12 11 8 7 11 18 20 18 16 11 7 16 20 12 13 15 11 14 14 8 7 6 4 6 5 3 7 9 8 6 8 8 5 4 7 8 10 13 13 12 11 9 10 12 11 10 10 10 12 14 12 12 14 8 9 10 13 12 14 15 14 13 12 12 14
Wind_Direction
233 232 234 237 237 237 240 244 250 255 255 244 232 226 224 221 223 226 229 228 224 221 220 221 223 225 227 227 227 229 234 242 245 244 243 244 243 240 237 227 220 219 219 218 216 222 222 218 218 215 211 206 213 200 191 194 184 188 209 222 218 212 199 192 197 196 330 88 130 172 197 208 194 182 201 218 213 215 229 226 230 229 226 228 219 213 208 202
232 231 230 233 235 234 236 239 245 251 256 253 238 229 226 222 221 223 226 228 225 222 220 219 219 222 225 225 226 228 233 242 247 247 245 246 243 238 237 229 219 214 214 214 211 214 218 216 213 209 205 203 205 199 199 192 187 208 228 224 223 208 181 178 211 199 260 71 104 165 200 215 219 168 195 217 204 201 225 230 231 238 235 233 228 220 217 211
232 232 229 229 232 232 232 235 240 244 250 252 242 232 229 224 220 220 224 225 225 223 220 219 218 219 222 223 225 227 235 242 248 248 246 245 243 237 236 233 221 211 211 211 207 208 213 215 212 204 198 203 199 193 200 194 196 208 219 236 227 192 214 226 222 208 181 62 77 138 192 211 231 187 192 223 222 205 229 228 221 232 235 235 232 223 221 220
233 232 229 227 228 230 229 230 235 237 241 247 245 235 230 227 222 220 221 223 224 224 222 219 217 217 219 220 222 226 234 245 252 253 250 243 245 239 232 233 224 213 210 209 204 202 206 210 208 199 195 201 193 197 206 196 196 180 209 246 230 148 233 213 211 210 203 259 44 125 174 205 223 212 203 214 228 230 236 234 229 235 235 235 235 227 223 225
235 231 227 227 226 226 227 227 229 233 235 241 244 240 232 228 223 220 219 220 223 223 223 220 217 216 216 217 217 222 226 245 264 261 255 240 240 238 229 229 226 217 207 207 203 194 196 200 197 191 195 199 180 199 212 194 194 190 211 255 62 171 223 178 192 206 203 235 218 167 182 199 205 213 214 214 228 242 243 243 248 251 248 245 245 236 230 229
235 232 226 224 224 223 225 227 227 229 231 234 241 243 238 230 223 221 218 218 220 223 222 220 218 214 215 214 210 216 214 215 334 277 248 233 230 231 225 222 225 220 208 205 200 192 189 188 187 186 193 201 191 200 197 183 202 222 214 198 184 204 218 52 151 201 199 209 207 192 216 202 195 219 222 224 236 253 269 267 271 270 259 253 250 245 240 237
235 234 230 223 222 222 223 225 226 226 228 229 234 242 243 232 222 220 218 217 218 221 221 219 219 213 215 213 208 217 214 214 250 51 60 219 217 216 214 213 217 217 207 203 199 192 187 185 186 182 190 200 197 203 187 177 201 231 227 184 192 210 222 270 118 185 176 182 201 182 256 204 200 243 235 233 244 253 260 264 269 278 277 260 250 247 247 246
235 233 232 227 221 220 220 222 224 223 224 225 229 236 243 236 222 218 216 216 216 218 220 218 218 213 214 213 212 226 223 216 227 249 318 53 197 199 197 199 206 211 207 205 202 194 188 188 187 180 192 202 193 194 177 179 202 227 234 182 181 210 224 242 237 208 179 193 245 271 277 252 228 263 262 254 260 262 263 264 264 266 272 260 246 244 247 248
238 231 229 229 224 219 219 221 221 221 220 221 225 228 238 239 225 217 215 214 214 216 218 217 217 213 214 216 217 234 234 221 218 230 240 202 132 182 193 195 197 203 205 205 205 200 192 188 188 185 196 196 191 189 177 196 210 213 224 188 179 205 212 231 234 237 238 244 259 264 271 266 250 267 263 260 266 270 266 261 259 258 258 252 245 246 252 251
239 233 228 229 226 220 219 219 219 219 218 218 222 223 230 240 232 218 213 213 213 214 217 216 216 214 216 218 220 234 231 224 219 219 223 220 211 160 196 205 200 198 202 203 203 202 196 194 195 194 201 191 188 187 178 201 216 196 212 200 203 212 201 221 225 235 249 251 249 253 268 272 250 248 249 248 257 273 276 264 256 253 251 250 250 254 259 257
238 234 229 227 225 221 219 219 217 217 217 216 218 219 223 235 235 219 211 213 212 212 215 216 216 217 220 220 223 229 221 222 225 218 224 235 241 251 235 226 212 203 201 202 203 202 199 201 199 194 198 186 177 176 186 205 221 175 174 197 218 219 220 226 222 223 233 246 231 242 275 268 210 220 240 241 252 268 280 279 266 256 252 251 253 256 257 255
235 233 229 227 225 222 219 218 217 215 216 215 215 216 216 227 233 220 210 211 211 211 213 215 217 219 222 227 230 228 216 222 231 221 226 237 244 253 256 242 223 211 205 203 205 203 199 200 200 197 188 171 165 154 201 202 199 169 169 225 218 205 230 222 218 217 214 232 212 206 278 255 214 219 240 247 255 263 267 269 267 261 256 252 253 253 252 252
234 233 230 226 223 220 218 217 216 213 213 213 212 212 211 218 227 219 210 209 210 210 212 215 219 221 223 233 237 232 220 222 226 219 226 232 237 243 244 237 223 214 208 206 207 202 197 195 200 202 188 170 166 137 182 177 168 179 194 244 227 226 237 208 200 198 204 222 185 174 264 254 225 219 235 245 249 254 256 255 255 256 256 253 253 252 252 252
233 232 230 227 223 220 217 215 214 212 210 210 209 208 207 211 220 218 209 208 208 208 212 215 218 222 226 235 240 235 228 227 222 212 225 228 230 233 231 230 221 212 209 208 210 205 198 194 199 205 198 182 169 149 144 140 174 192 180 229 231 241 234 183 183 178 197 213 170 183 256 257 247 221 221 234 241 244 247 249 248 249 253 254 255 255 255 254
231 229 228 227 225 221 217 214 213 211 207 207 206 204 202 204 213 214 209 207 207 210 213 216 218 219 230 241 241 235 231 231 226 217 223 227 225 224 220 221 218 207 206 208 210 207 200 194 196 201 189 166 160 168 175 154 193 196 194 218 218 229 224 170 179 184 203 205 168 195 253 254 257 256 237 235 240 240 243 248 247 245 250 253 255 256 257 257
230 226 225 225 224 221 218 212 211 209 205 203 203 202 199 200 207 210 208 206 208 213 213 215 220 220 230 247 240 235 231 230 228 222 225 230 223 219 214 211 211 200 199 204 204 204 201 193 194 194 169 162 175 187 199 200 208 201 214 228 207 211 225 203 173 192 212 207 179 209 244 251 249 257 251 241 236 235 244 251 249 246 248 251 253 254 255 258
229 226 224 223 221 219 218 214 208 204 202 199 198 199 197 197 202 204 204 208 211 213 212 215 219 222 238 247 232 231 229 225 226 224 224 226 219 216 208 195 190 186 187 198 197 198 200 191 188 193 177 188 194 188 201 214 217 204 212 231 216 206 219 209 159 191 212 222 211 215 236 252 251 251 256 254 239 232 241 251 253 251 249 250 253 255 256 258
227 225 223 221 219 217 216 215 208 201 200 196 194 196 194 194 196 199 202 208 210 206 211 215 211 216 238 237 226 221 225 222 222 223 219 216 213 213 210 199 184 173 169 183 191 193 194 185 185 198 193 200 197 192 207 214 210 207 210 221 222 216 218 219 200 170 189 214 230 219 232 247 249 256 258 256 245 235 240 249 254 254 253 254 256 259 260 260
225 224 222 218 217 214 213 214 207 200 196 191 189 191 189 188 190 198 205 206 199 187 199 203 194 186 295 231 221 218 223 220 219 221 215 210 208 207 210 204 182 169 161 165 189 190 183 173 188 203 199 201 200 202 211 204 195 208 214 218 224 229 225 225 222 173 183 215 231 228 240 247 246 252 257 257 249 240 243 248 252 254 255 256 258 261 262 261
223 222 221 217 214 212 211 211 206 198 193 187 184 182 180 178 179 199 205 208 205 194 191 196 195 203 23 90 206 211 210 207 211 214 213 211 206 198 194 184 172 168 166 163 178 186 184 183 199 206 203 200 201 206 212 211 198 207 218 225 225 231 231 220 213 173 183 237 244 240 250 254 252 254 256 260 256 244 241 242 244 248 251 253 255 258 261 262
222 220 219 215 211 210 209 208 205 197 191 187 182 180 179 177 173 192 193 205 216 207 206 196 198 212 268 74 179 198 188 185 202 206 210 210 205 196 178 169 168 171 175 163 143 168 187 205 213 209 206 202 203 206 211 216 214 214 223 226 222 227 233 221 210 189 174 238 256 256 259 258 256 256 255 257 257 251 246 242 240 243 247 250 253 257 261 264
220 219 217 212 207 208 207 205 203 196 188 187 185 185 188 185 183 192 185 187 223 214 216 218 208 214 217 165 155 187 182 176 195 203 203 200 199 198 177 169 179 180 172 157 132 160 192 218 216 204 202 207 210 208 211 218 219 221 223 224 226 222 226 222 211 206 187 223 260 261 261 263 259 254 252 249 250 253 250 245 245 245 246 248 251 256 261 265
218 217 217 211 205 206 204 203 202 192 185 187 188 190 193 189 186 186 182 171 219 217 221 222 222 223 216 220 197 184 185 180 186 198 199 192 192 196 187 178 186 184 172 163 163 176 197 222 214 196 199 208 212 210 212 220 220 223 218 220 230 208 208 230 213 205 202 218 268 277 266 266 262 255 252 245 245 253 252 247 248 247 248 251 252 256 260 263
216 214 215 210 204 203 201 200 196 187 186 189 191 193 193 189 183 159 165 161 313 216 222 221 224 232 216 213 210 194 196 193 188 197 199 192 189 193 195 193 192 193 183 174 175 185 209 215 189 188 203 207 212 212 210 217 221 224 220 219 226 203 210 236 207 181 205 229 255 282 278 268 253 247 250 244 238 246 249 245 247 245 246 252 253 254 257 259
214 212 213 207 203 202 198 196 190 184 187 190 193 195 193 190 182 150 148 156 316 199 219 221 225 238 223 210 208 197 202 206 199 200 199 196 192 186 191 199 199 204 193 181 177 194 218 183 167 187 201 200 211 214 209 214 220 225 222 220 223 211 214 225 195 171 240 250 218 217 263 274 242 236 241 242 231 233 239 239 241 242 242 247 249 251 255 258
212 211 210 205 201 198 193 191 186 183 185 189 193 193 192 189 176 151 142 167 257 174 172 199 207 226 219 209 199 185 204 223 207 204 200 200 198 187 179 190 200 211 196 186 184 201 205 175 174 191 192 194 208 212 207 209 218 231 220 212 219 220 220 217 197 200 245 264 195 186 245 277 265 246 242 244 240 231 231 232 236 239 239 241 244 249 254 257
211 209 210 205 199 193 188 185 181 180 184 189 192 189 188 185 171 153 146 243 253 164 148 181 187 202 204 200 189 178 195 206 200 210 204 200 199 196 199 191 184 209 190 180 207 201 176 179 187 191 189 195 205 208 203 201 215 234 179 181 209 221 223 220 213 220 244 284 250 199 230 270 271 260 247 246 251 245 236 233 231 229 232 237 241 247 252 256
209 208 210 206 199 193 189 183 178 180 187 189 187 184 182 178 172 160 154 217 206 153 144 175 182 185 182 181 183 185 222 174 182 211 204 199 195 194 216 209 194 198 184 186 210 191 169 183 187 187 191 196 203 205 193 191 210 214 132 168 206 218 222 223 221 229 251 286 265 229 215 255 265 255 241 239 244 246 243 241 234 223 225 232 238 245 251 254
207 206 208 206 198 193 192 188 182 182 188 185 179 179 176 170 169 160 175 209 182 148 150 165 173 170 161 164 180 191 203 176 175 191 193 200 195 187 220 213 205 201 191 204 219 184 147 200 196 191 195 198 201 193 174 186 203 172 141 171 196 211 219 221 220 228 245 260 258 243 214 237 268 257 230 231 235 242 242 241 238 229 227 229 237 246 250 253
206 205 207 204 194 189 189 185 182 182 185 182 175 171 165 159 159 160 191 203 129 135 156 161 167 161 157 159 180 192 194 183 147 157 176 197 198 194 209 194 196 201 192 214 225 224 312 245 189 200 207 189 180 171 175 188 173 122 128 157 170 192 205 210 215 221 239 246 250 243 215 224 262 253 216 227 236 240 230 227 234 232 231 230 235 244 250 252
205 204 206 202 190 186 183 174 176 183 182 177 167 157 153 150 158 182 188 193 41 131 148 161 170 159 161 165 178 191 193 184 152 155 170 190 191 190 187 174 175 174 187 212 224 230 238 191 151 201 194 152 142 163 183 183 151 131 135 149 158 169 168 189 194 197 222 237 249 243 219 222 244 233 168 239 98 188 210 215 221 225 229 229 233 242 249 253
204 204 206 200 190 188 185 175 176 181 177 170 160 150 145 142 182 195 180 150 70 174 159 167 176 168 168 173 179 185 188 186 174 171 177 188 190 187 196 193 175 183 203 203 198 213 224 211 184 184 170 157 156 157 158 160 160 171 171 157 172 184 182 200 197 191 216 233 265 223 206 224 245 247 242 248 199 138 204 220 224 228 234 236 239 246 251 255
203 203 204 197 190 188 185 179 177 177 171 165 158 150 147 166 180 188 177 153 159 177 165 170 178 175 172 177 185 183 184 187 179 180 183 187 197 204 212 210 190 200 213 191 197 198 210 216 197 170 163 171 170 159 162 172 179 185 178 178 190 192 199 211 210 203 222 241 270 73 168 242 260 259 234 230 233 219 204 208 220 231 238 243 245 250 253 254
201 201 198 193 190 186 182 177 175 173 165 160 156 149 161 173 173 186 192 182 197 151 159 167 171 172 176 185 188 176 178 187 178 182 186 178 192 208 214 213 200 204 155 167 200 197 208 223 189 176 171 174 178 182 178 167 180 191 185 192 198 192 206 214 210 209 220 238 217 117 125 239 245 277 181 216 242 227 207 205 219 234 243 250 257 261 264 264
198 196 193 190 187 184 180 174 172 169 161 157 156 155 168 171 173 186 194 184 191 169 158 164 165 167 181 194 191 178 180 190 177 180 186 178 195 205 205 212 203 201 189 187 196 189 220 247 182 183 180 171 183 192 173 154 180 199 188 202 210 203 214 228 212 203 204 228 207 174 224 246 241 279 227 149 41 221 214 215 227 242 249 252 260 263 264 266
194 192 192 186 180 180 178 171 168 166 160 154 156 174 177 185 174 177 174 143 149 155 149 159 167 168 181 189 189 185 186 183 174 179 190 189 204 206 198 206 201 203 205 202 193 165 213 239 167 181 186 180 190 189 169 166 177 184 194 208 214 214 223 248 263 168 184 229 226 198 238 264 272 276 252 228 234 234 226 223 224 238 246 253 260 260 260 262
191 190 189 179 171 173 173 168 165 164 161 158 169 177 180 190 161 152 150 130 135 153 148 159 172 172 179 178 184 183 175 167 177 184 188 186 204 205 199 200 193 199 209 214 241 165 206 259 159 175 192 195 195 189 181 190 187 167 198 199 184 296 293 268 247 192 182 230 229 207 230 243 244 259 241 214 224 224 216 210 210 234 247 253 255 254 256 259
187 186 181 173 170 171 169 167 165 163 162 167 183 177 167 171 160 147 154 143 138 155 157 167 167 173 181 178 184 180 171 173 180 185 185 183 199 191 189 198 194 197 204 208 225 8 183 267 191 183 197 195 192 192 194 203 201 188 190 181 152 189 213 203 221 206 188 224 237 226 233 233 224 234 212 169 204 216 215 204 195 224 237 243 247 250 254 258
183 181 173 168 170 172 168 164 163 161 160 176 190 185 172 173 156 135 157 154 144 159 171 178 165 179 188 186 185 175 175 185 180 182 191 187 194 186 182 186 191 194 196 196 206 91 151 237 234 195 194 175 179 195 198 203 210 273 134 172 168 213 210 202 205 203 197 212 235 240 237 232 229 234 222 161 156 186 203 201 206 224 227 230 238 246 253 258
179 173 164 165 168 171 167 162 160 160 165 186 185 167 160 168 135 143 160 157 147 167 181 184 167 177 187 192 186 169 179 194 183 184 196 179 187 195 183 181 179 184 188 188 194 187 163 223 234 195 157 162 189 200 199 200 203 204 186 179 186 198 219 220 204 208 217 217 228 248 248 241 242 227 206 197 191 182 187 194 205 218 225 230 236 244 253 261
172 152 156 164 166 166 161 157 156 162 175 187 178 126 154 161 142 154 163 154 138 100 165 175 172 172 179 185 182 166 178 194 189 191 196 183 197 209 189 190 182 164 179 191 197 197 192 207 222 221 174 192 225 170 176 195 198 211 208 194 194 192 180 197 204 199 215 226 220 240 256 254 260 215 197 204 212 199 197 211 213 220 236 252 259 258 263 270
165 149 156 161 165 162 154 146 150 166 181 176 155 120 141 149 153 162 160 144 129 79 103 165 173 166 167 178 179 167 173 185 190 193 199 201 207 208 191 192 176 154 165 190 192 184 172 198 223 237 228 211 234 94 98 58 8 258 243 220 210 203 189 195 202 189 194 219 221 240 263 266 34 28 31 65 69 55 45 335 336 8 1 1 342 310 298 293
145 132 151 160 165 161 153 139 155 166 200 146 129 112 118 129 149 159 164 167 155 119 134 155 181 180 180 173 160 167 180 187 189 192 199 208 213 207 179 177 165 156 162 182 182 163 126 177 213 239 248 241 251 148 90 46 27 284 257 237 226 218 211 215 217 193 188 198 203 230 250 246 99 55 63 76 79 70 59 51 50 40 26 17 6 358 355 340
116 125 143 159 165 162 156 151 166 172 184 153 143 140 126 110 146 163 175 180 160 142 145 137 181 184 167 148 150 170 188 196 194 194 201 212 218 175 165 170 168 168 177 184 175 167 173 189 198 221 235 231 231 227 211 154 136 233 241 238 241 231 224 229 245 289 213 195 192 208 236 238 188 93 95 92 85 79 72 60 50 39 20 10 2 359 358 354
116 120 136 155 163 166 168 70 170 172 166 161 163 163 148 107 121 167 171 163 130 147 152 143 160 126 93 151 163 174 189 203 204 196 203 218 214 137 169 176 175 178 189 185 170 168 184 193 195 213 223 219 218 224 227 200 172 195 203 216 240 237 228 225 217 220 219 193 193 208 226 224 154 111 107 104 85 69 69 52 23 2 348 347 346 344 346 348
131 112 126 151 162 174 192 20 162 167 164 163 164 169 166 151 102 151 162 163 152 149 132 83 146 134 119 173 178 179 189 204 214 184 196 202 181 84 191 188 186 184 180 174 166 165 198 214 204 217 226 229 230 228 244 148 147 177 192 194 214 227 237 242 225 219 207 181 203 218 218 223 202 148 130 117 68 22 351 350 353 338 328 328 329 330 332 335
143 129 139 141 151 175 187 155 173 168 168 168 158 166 169 155 133 138 155 174 163 155 128 41 157 172 166 173 184 190 187 193 191 182 198 197 156 58 213 205 205 189 168 168 173 168 199 221 211 221 229 238 247 236 170 140 161 182 192 193 201 211 226 244 240 243 224 205 217 212 201 227 227 180 133 14 4 350 326 325 331 325 316 315 316 317 318 321
122 127 148 148 151 181 186 188 183 167 162 166 151 155 164 159 164 168 149 102 146 166 178 178 192 194 179 171 177 188 183 193 207 197 198 186 148 127 155 220 235 198 170 171 183 174 184 223 213 221 230 241 249 239 194 179 196 193 192 195 196 197 207 222 227 260 277 234 237 59 195 238 236 213 1 321 322 316 304 305 305 299 296 301 307 311 311 312
107 113 135 144 151 162 140 148 164 162 162 166 157 163 170 171 176 169 126 114 159 190 202 202 200 200 191 179 178 186 184 187 204 207 200 182 169 156 156 193 241 218 192 183 186 182 205 223 211 214 232 242 245 236 203 198 213 212 207 204 197 195 200 210 212 187 193 239 270 313 288 272 267 279 298 293 291 290 287 286 280 275 279 289 298 304 306 307
130 130 135 126 106 123 118 125 154 159 160 170 172 176 178 181 179 164 133 159 172 179 199 209 199 190 194 194 194 205 200 188 195 200 188 176 176 175 181 192 198 199 199 197 194 196 210 220 188 184 232 244 235 225 209 202 208 215 217 208 195 195 198 207 214 195 184 221 242 250 276 283 278 277 282 281 278 265 260 260 257 263 272 276 281 289 294 296
136 127 124 116 91 126 133 133 154 156 165 183 182 174 182 187 179 161 152 193 187 174 188 202 192 179 193 202 207 217 211 200 205 202 187 184 189 189 192 188 162 167 192 202 194 189 206 222 144 166 227 240 217 211 210 197 216 232 224 199 186 193 197 204 208 192 187 209 226 237 255 266 270 279 283 277 258 201 225 242 243 259 268 265 267 277 288 299
134 129 124 112 80 129 142 138 155 164 177 186 175 165 177 182 172 165 173 205 204 194 196 196 187 179 194 205 212 220 218 212 226 232 195 192 192 185 183 175 167 170 177 186 188 187 194 208 170 177 219 237 202 193 188 168 218 237 214 198 201 208 215 219 218 211 209 209 219 234 237 243 257 269 276 272 233 181 216 233 234 249 256 257 264 274 291 310